Location: Camp at the Woods
(43.2055°N, 93.0905°W)
Time: 09:58:06
(UTC+00:00)

BlueWalker 3 - Pass Details

Date: 18 April 2024
Orbit: 482 x 494 km, 53.2° (Epoch: 22 May)

Event Time Altitude Azimuth Distance (km) Brightness Sun altitude
Rises 01:37:21 0° 204° (SSW) 2,553 5.5 -7.5°
Reaches altitude 10° 01:39:43 10° 192° (SSW) 1,679 4.5 -7.9°
Maximum altitude 01:42:58 27° 133° (SE) 975 2.9 -8.5°
Drops below altitude 10° 01:46:14 10° 74° (ENE) 1,696 4.2 -9.0°
Enters shadow 01:48:12 - 64° (ENE) 2,416 5.0 -9.3°
